Date String (YYYY-MM-DD hh:mm:ss) UTC,Instrument flags,Ambient pressure (hPa),Sample flow (lpm),Bypass flow (lpm),Sample temperature (°C),Ambient temperature (°C),ASC tube jacket temperature (°C),LED temperature (°C),Box temperature (°C),Sample RH (%),Span deviation,Mass concentration (μg/m³),Mass concentration (μg/m³),Mass concentration (μg/m³)
DateTimeUTC,F1_M11,P_M11,Q1_M11,Q2_M11,T1_M11,T2_M11,T3_M11,T4_M11,T5_M11,U1_M11,ZSPAN_M11,X0_M11,X2_M11,X1_M11
2022-11-18 14:00:00,,0831.7,5.02,0.00,22.5,21.6,00.0,31.3,24.3,07.6,0000.0,0006.69,0004.63,0004.40
2022-11-18 14:01:00,,0831.7,4.99,0.00,22.4,21.3,00.0,31.3,24.2,07.6,0000.0,0006.78,0004.66,0004.40
2022-11-18 14:02:00,,0831.7,5.00,0.00,22.4,21.2,00.0,31.3,24.2,07.7,0000.0,0006.93,0004.70,0004.42
2022-11-18 14:03:00,,0831.7,5.01,0.00,22.4,21.1,00.0,31.3,24.2,07.7,0000.0,0007.14,0004.74,0004.44
2022-11-18 14:04:00,,0831.7,5.00,0.00,22.4,20.9,00.0,31.3,24.1,07.7,0000.0,0007.20,0004.77,0004.46
2022-11-18 14:05:00,,0831.7,5.00,0.00,22.3,20.9,00.0,31.3,24.1,07.7,0000.0,0007.03,0004.79,0004.46
2022-11-18 14:06:00,,0831.7,5.00,0.00,22.3,20.8,00.0,31.3,24.1,07.7,0000.0,0007.03,0004.80,0004.47
2022-11-18 14:07:00,,0831.7,5.00,0.00,22.3,20.8,00.0,31.3,24.1,07.8,0000.0,0007.06,0004.82,0004.48
2022-11-18 14:08:00,,0831.7,4.99,0.00,22.3,21.4,00.0,31.2,24.2,07.7,0000.0,0007.20,0004.86,0004.50
2022-11-18 14:09:00,,0831.7,5.00,0.00,22.4,22.3,00.0,31.2,24.4,07.7,0000.0,0007.33,0004.89,0004.53
2022-11-18 14:10:00,,0831.7,4.99,0.00,22.5,22.4,00.0,31.3,24.5,07.7,0000.0,0007.36,0004.93,0004.57
2022-11-18 14:11:00,,0831.7,5.00,0.00,22.5,22.0,00.0,31.3,24.4,07.7,0000.0,0007.35,0004.96,0004.60
2022-11-18 14:12:00,,0831.7,4.99,0.00,22.5,21.7,00.0,31.3,24.3,07.7,0000.0,0007.34,0005.00,0004.63
2022-11-18 14:13:00,,0831.8,5.00,0.00,22.5,21.5,00.0,31.3,24.3,07.7,0000.0,0007.32,0005.01,0004.66
2022-11-18 14:14:00,,0831.7,5.00,0.00,22.5,21.3,00.0,31.4,24.3,07.7,0000.0,0007.21,0005.01,0004.68
2022-11-18 14:15:00,,0831.7,5.00,0.00,22.4,21.2,00.0,31.4,24.2,07.7,0000.0,0007.28,0005.04,0004.70
2022-11-18 14:16:00,,0831.7,5.00,0.00,22.4,21.1,00.0,31.4,24.2,07.7,0000.0,0007.27,0005.04,0004.72
2022-11-18 14:17:00,,0831.6,5.00,0.00,22.4,21.0,00.0,31.3,24.2,07.8,0000.0,0007.27,0005.04,0004.72
2022-11-18 14:18:00,,0831.6,5.00,0.00,22.4,20.9,00.0,31.3,24.1,07.8,0000.0,0007.38,0005.09,0004.73
2022-11-18 14:19:00,,0831.6,5.00,0.00,22.3,20.8,00.0,31.3,24.1,07.8,0000.0,0007.33,0005.09,0004.73
2022-11-18 14:20:00,,0831.6,5.00,0.00,22.3,20.9,00.0,31.3,24.1,07.8,0000.0,0007.19,0005.06,0004.72
2022-11-18 14:21:00,,0831.6,5.01,0.00,22.4,21.6,00.0,31.2,24.3,07.8,0000.0,0007.09,0005.02,0004.69
2022-11-18 14:22:00,,0831.7,5.00,0.00,22.5,22.4,00.0,31.2,24.4,07.8,0000.0,0007.04,0005.00,0004.68
2022-11-18 14:23:00,,0831.7,4.99,0.00,22.5,22.3,00.0,31.3,24.5,07.7,0000.0,0006.94,0004.97,0004.68
2022-11-18 14:24:00,,0831.7,5.02,0.00,22.5,22.0,00.0,31.3,24.4,07.7,0000.0,0006.94,0004.98,0004.67
2022-11-18 14:25:00,,0831.7,4.99,0.00,22.5,21.7,00.0,31.4,24.4,07.7,0000.0,0006.95,0005.00,0004.67
2022-11-18 14:26:00,,0831.7,5.00,0.00,22.5,21.4,00.0,31.4,24.3,07.8,0000.0,0007.08,0005.02,0004.67
2022-11-18 14:27:00,,0831.7,5.01,0.00,22.4,21.3,00.0,31.4,24.2,07.7,0000.0,0007.11,0005.03,0004.68
2022-11-18 14:28:00,,0831.7,5.01,0.00,22.4,21.1,00.0,31.4,24.2,07.7,0000.0,0007.21,0005.04,0004.69
2022-11-18 14:29:00,,0831.7,4.98,0.00,22.4,21.0,00.0,31.4,24.2,07.7,0000.0,0007.16,0005.02,0004.71
2022-11-18 14:30:00,,0831.7,5.00,0.00,22.4,20.9,00.0,31.4,24.2,07.8,0000.0,0007.09,0005.01,0004.72
2022-11-18 14:31:00,,0831.7,5.01,0.00,22.4,20.9,00.0,31.3,24.1,07.8,0000.0,0007.24,0005.05,0004.74
2022-11-18 14:32:00,,0831.7,5.00,0.00,22.3,20.8,00.0,31.3,24.1,07.8,0000.0,0007.30,0005.07,0004.75
2022-11-18 14:33:00,,0831.7,5.01,0.00,22.3,21.0,00.0,31.3,24.1,07.8,0000.0,0007.36,0005.10,0004.76
2022-11-18 14:34:00,,0831.7,5.00,0.00,22.4,21.9,00.0,31.3,24.3,07.8,0000.0,0007.35,0005.11,0004.77
2022-11-18 14:35:00,,0831.8,5.00,0.00,22.5,22.5,00.0,31.3,24.5,07.8,0000.0,0007.42,0005.14,0004.78
2022-11-18 14:36:00,,0831.8,5.00,0.00,22.6,22.3,00.0,31.3,24.5,07.8,0000.0,0007.47,0005.14,0004.79
2022-11-18 14:37:00,,0831.7,4.99,0.00,22.5,21.9,00.0,31.4,24.4,07.8,0000.0,0007.43,0005.12,0004.79
2022-11-18 14:38:00,,0831.7,4.99,0.00,22.5,21.7,00.0,31.4,24.4,07.8,0000.0,0007.47,0005.12,0004.80
2022-11-18 14:39:00,,0831.7,5.01,0.00,22.5,21.5,00.0,31.4,24.3,07.8,0000.0,0007.52,0005.17,0004.83
2022-11-18 14:40:00,,0831.7,5.01,0.00,22.5,21.3,00.0,31.4,24.3,07.9,0000.0,0007.65,0005.24,0004.88
2022-11-18 14:41:00,,0831.8,4.98,0.00,22.5,21.2,00.0,31.4,24.2,07.9,0000.0,0007.82,0005.29,0004.92
2022-11-18 14:42:00,,0831.8,4.99,0.00,22.4,21.1,00.0,31.4,24.2,07.9,0000.0,0007.78,0005.30,0004.96
2022-11-18 14:43:00,,0831.7,5.01,0.00,22.4,21.0,00.0,31.4,24.2,07.9,0000.0,0007.80,0005.33,0004.99
2022-11-18 14:44:00,,0831.7,5.00,0.00,22.4,21.0,00.0,31.4,24.2,08.0,0000.0,0007.86,0005.34,0005.02
2022-11-18 14:45:00,,0831.7,5.01,0.00,22.4,20.9,00.0,31.4,24.2,08.0,0000.0,0007.86,0005.35,0005.02
2022-11-18 14:46:00,,0831.7,5.01,0.00,22.4,20.9,00.0,31.3,24.2,08.0,0000.0,0007.79,0005.33,0005.03
2022-11-18 14:47:00,,0831.7,4.99,0.00,22.4,21.6,00.0,31.3,24.2,08.0,0000.0,0007.78,0005.34,0005.04
2022-11-18 14:48:00,,0831.9,5.01,0.00,22.5,22.4,00.0,31.3,24.4,08.0,0000.0,0007.94,0005.34,0005.05
2022-11-18 14:49:00,,0832.0,4.99,0.00,22.6,22.5,00.0,31.3,24.5,08.0,0000.0,0008.03,0005.36,0005.07
2022-11-18 14:50:00,,0832.0,5.01,0.00,22.6,22.1,00.0,31.4,24.5,08.0,0000.0,0008.04,0005.35,0005.07
2022-11-18 14:51:00,,0832.0,5.01,0.00,22.6,21.8,00.0,31.4,24.4,08.0,0000.0,0007.91,0005.31,0005.05
2022-11-18 14:52:00,,0831.9,4.99,0.00,22.6,21.6,00.0,31.4,24.4,08.0,0000.0,0007.81,0005.29,0005.03
2022-11-18 14:53:00,,0831.9,5.01,0.00,22.5,21.4,00.0,31.4,24.3,08.1,0000.0,0007.87,0005.29,0005.01
2022-11-18 14:54:00,,0832.0,5.01,0.00,22.5,21.3,00.0,31.4,24.3,08.1,0000.0,0007.93,0005.29,0004.99
2022-11-18 14:55:00,,0831.9,5.00,0.00,22.5,21.2,00.0,31.4,24.3,08.1,0000.0,0007.91,0005.30,0005.00
2022-11-18 14:56:00,,0831.9,4.99,0.00,22.5,21.1,00.0,31.4,24.3,08.1,0000.0,0007.97,0005.32,0005.00
2022-11-18 14:57:00,,0831.9,4.99,0.00,22.5,21.0,00.0,31.4,24.3,08.1,0000.0,0007.97,0005.32,0005.02
2022-11-18 14:58:00,,0832.0,5.00,0.00,22.4,21.0,00.0,31.4,24.3,08.2,0000.0,0007.93,0005.32,0005.02
2022-11-18 14:59:00,,0832.0,5.01,0.00,22.4,20.9,00.0,31.4,24.2,08.2,0000.0,0007.73,0005.32,0005.03
